contact:dominique.lefevre@mio.osupytheas.fr, maurice.libes@osupytheas.fr, didier.mallarino@osupytheas.fr
Project:EMSO http://www.emso-fr.org/EMSO-France
Depth: 2436.0 m
Title:EMSO Ligure Ouest : Data MII capteur MICROCAT
DateTime_Computer,Latitude,Longitude,Temperature,Conductivity,Pressure,DateTime_Instrument
DateTime_Computer,Latitude,Longitude,degC,S m-1,dbar,DateTime_Instrument
2021-07-29T00:01:46Z,42.805,6.029,13.3014,4.60021,2470.53,2021-7-29T02:03:03Z
2021-07-29T00:04:49Z,42.805,6.029,13.3006,4.60016,2470.53,2021-7-29T02:06:06Z
2021-07-29T00:07:52Z,42.805,6.029,13.3008,4.60029,2470.567,2021-7-29T02:09:09Z
2021-07-29T00:10:55Z,42.805,6.029,13.3014,4.60021,2470.544,2021-7-29T02:12:12Z
2021-07-29T00:13:58Z,42.805,6.029,13.3004,4.60029,2470.553,2021-7-29T02:15:15Z
2021-07-29T00:17:01Z,42.805,6.029,13.3001,4.60018,2470.52,2021-7-29T02:18:19Z
2021-07-29T00:20:05Z,42.805,6.029,13.3019,4.60021,2470.507,2021-7-29T02:21:22Z
2021-07-29T00:23:08Z,42.805,6.029,13.3013,4.60019,2470.53,2021-7-29T02:24:25Z
2021-07-29T00:26:11Z,42.805,6.029,13.3009,4.60016,2470.544,2021-7-29T02:27:28Z
2021-07-29T00:29:14Z,42.805,6.029,13.3006,4.60020,2470.53,2021-7-29T02:30:31Z
2021-07-29T00:32:17Z,42.805,6.029,13.3006,4.60009,2470.507,2021-7-29T02:33:34Z
2021-07-29T00:35:20Z,42.805,6.029,13.3004,4.60016,2470.544,2021-7-29T02:36:37Z
2021-07-29T00:38:23Z,42.805,6.029,13.3014,4.60021,2470.544,2021-7-29T02:39:40Z
2021-07-29T00:41:26Z,42.805,6.029,13.3011,4.60009,2470.544,2021-7-29T02:42:44Z
2021-07-29T00:44:30Z,42.805,6.029,13.3009,4.60014,2470.507,2021-7-29T02:45:47Z
2021-07-29T00:47:33Z,42.805,6.029,13.3002,4.60014,2470.53,2021-7-29T02:48:50Z
2021-07-29T00:50:36Z,42.805,6.029,13.3011,4.60016,2470.567,2021-7-29T02:51:53Z
2021-07-29T00:53:39Z,42.805,6.029,13.3011,4.60016,2470.52,2021-7-29T02:54:56Z
2021-07-29T00:56:42Z,42.805,6.029,13.3004,4.60014,2470.507,2021-7-29T02:57:59Z
2021-07-29T00:59:45Z,42.805,6.029,13.3010,4.60013,2470.483,2021-7-29T03:01:02Z
2021-07-29T01:02:48Z,42.805,6.029,13.3008,4.60014,2470.507,2021-7-29T03:04:05Z
2021-07-29T01:05:51Z,42.805,6.029,13.3014,4.60020,2470.52,2021-7-29T03:07:09Z
2021-07-29T01:08:55Z,42.805,6.029,13.3002,4.60015,2470.507,2021-7-29T03:10:12Z
2021-07-29T01:11:58Z,42.805,6.029,13.3005,4.60009,2470.507,2021-7-29T03:13:15Z
2021-07-29T01:15:01Z,42.805,6.029,13.3000,4.60009,2470.507,2021-7-29T03:16:18Z
2021-07-29T01:18:04Z,42.805,6.029,13.3012,4.60011,2470.497,2021-7-29T03:19:21Z
2021-07-29T01:21:07Z,42.805,6.029,13.3012,4.60011,2470.507,2021-7-29T03:22:24Z
2021-07-29T01:24:10Z,42.805,6.029,13.3006,4.60015,2470.497,2021-7-29T03:25:27Z
2021-07-29T01:27:13Z,42.805,6.029,13.3006,4.60016,2470.483,2021-7-29T03:28:30Z
2021-07-29T01:30:16Z,42.805,6.029,13.3006,4.60011,2470.507,2021-7-29T03:31:34Z
2021-07-29T01:33:20Z,42.805,6.029,13.3014,4.60011,2470.483,2021-7-29T03:34:37Z
2021-07-29T01:36:23Z,42.805,6.029,13.3009,4.60014,2470.497,2021-7-29T03:37:40Z
2021-07-29T01:39:26Z,42.805,6.029,13.3011,4.60017,2470.483,2021-7-29T03:40:43Z
2021-07-29T01:42:29Z,42.805,6.029,13.3004,4.60016,2470.47,2021-7-29T03:43:46Z
2021-07-29T01:45:32Z,42.805,6.029,13.3010,4.60016,2470.52,2021-7-29T03:46:49Z
2021-07-29T01:48:35Z,42.805,6.029,13.3004,4.60017,2470.483,2021-7-29T03:49:52Z
2021-07-29T01:51:38Z,42.805,6.029,13.3005,4.60007,2470.474,2021-7-29T03:52:55Z
2021-07-29T01:54:41Z,42.805,6.029,13.3008,4.60019,2470.46,2021-7-29T03:55:59Z
2021-07-29T01:57:45Z,42.805,6.029,13.3003,4.60016,2470.483,2021-7-29T03:59:02Z
2021-07-29T02:00:48Z,42.805,6.029,13.3006,4.60011,2470.483,2021-7-29T04:02:05Z
2021-07-29T02:03:51Z,42.805,6.029,13.3001,4.60017,2470.483,2021-7-29T04:05:08Z
2021-07-29T02:06:54Z,42.805,6.029,13.2998,4.60017,2470.497,2021-7-29T04:08:11Z
2021-07-29T02:09:57Z,42.805,6.029,13.3000,4.60014,2470.497,2021-7-29T04:11:14Z
2021-07-29T02:13:00Z,42.805,6.029,13.3012,4.60016,2470.45,2021-7-29T04:14:17Z
2021-07-29T02:16:03Z,42.805,6.029,13.2997,4.60026,2470.437,2021-7-29T04:17:20Z
2021-07-29T02:19:06Z,42.805,6.029,13.3004,4.60014,2470.474,2021-7-29T04:20:23Z
2021-07-29T02:22:10Z,42.805,6.029,13.3018,4.60027,2470.474,2021-7-29T04:23:27Z
2021-07-29T02:25:13Z,42.805,6.029,13.3001,4.60011,2470.497,2021-7-29T04:26:30Z
2021-07-29T02:28:16Z,42.805,6.029,13.3004,4.60014,2470.45,2021-7-29T04:29:33Z
2021-07-29T02:31:19Z,42.805,6.029,13.3000,4.60017,2470.437,2021-7-29T04:32:36Z
2021-07-29T02:34:22Z,42.805,6.029,13.2998,4.60013,2470.46,2021-7-29T04:35:39Z
2021-07-29T02:37:25Z,42.805,6.029,13.3002,4.60011,2470.437,2021-7-29T04:38:42Z
2021-07-29T02:40:28Z,42.805,6.029,13.3006,4.60016,2470.46,2021-7-29T04:41:45Z
2021-07-29T02:43:31Z,42.805,6.029,13.3009,4.60014,2470.437,2021-7-29T04:44:48Z
2021-07-29T02:46:35Z,42.805,6.029,13.3015,4.60019,2470.413,2021-7-29T04:47:52Z
2021-07-29T02:49:38Z,42.805,6.029,13.3008,4.60016,2470.437,2021-7-29T04:50:55Z
2021-07-29T02:52:41Z,42.805,6.029,13.3006,4.60009,2470.497,2021-7-29T04:53:58Z
2021-07-29T02:55:44Z,42.805,6.029,13.3008,4.60017,2470.423,2021-7-29T04:57:01Z
2021-07-29T02:58:47Z,42.805,6.029,13.3004,4.60009,2470.46,2021-7-29T05:00:04Z
2021-07-29T03:01:50Z,42.805,6.029,13.3014,4.60024,2470.437,2021-7-29T05:03:07Z
2021-07-29T03:04:53Z,42.805,6.029,13.3011,4.60015,2470.45,2021-7-29T05:06:10Z
2021-07-29T03:07:56Z,42.805,6.029,13.3015,4.60019,2470.45,2021-7-29T05:09:13Z
2021-07-29T03:11:00Z,42.805,6.029,13.3000,4.60011,2470.437,2021-7-29T05:12:17Z
2021-07-29T03:14:03Z,42.805,6.029,13.2998,4.60016,2470.413,2021-7-29T05:15:20Z
2021-07-29T03:17:06Z,42.805,6.029,13.3005,4.60021,2470.437,2021-7-29T05:18:23Z
2021-07-29T03:20:09Z,42.805,6.029,13.3009,4.60011,2470.45,2021-7-29T05:21:26Z
2021-07-29T03:23:12Z,42.805,6.029,13.3021,4.60023,2470.45,2021-7-29T05:24:29Z
2021-07-29T03:26:15Z,42.805,6.029,13.3016,4.60021,2470.46,2021-7-29T05:27:32Z
2021-07-29T03:29:18Z,42.805,6.029,13.3007,4.60010,2470.437,2021-7-29T05:30:35Z
2021-07-29T03:32:21Z,42.805,6.029,13.3010,4.60018,2470.427,2021-7-29T05:33:38Z
2021-07-29T03:35:24Z,42.805,6.029,13.3008,4.60009,2470.427,2021-7-29T05:36:42Z
2021-07-29T03:38:28Z,42.805,6.029,13.3009,4.60014,2470.413,2021-7-29T05:39:45Z
2021-07-29T03:41:31Z,42.805,6.029,13.3009,4.60011,2470.413,2021-7-29T05:42:48Z
2021-07-29T03:44:34Z,42.805,6.029,13.3007,4.60014,2470.413,2021-7-29T05:45:51Z
2021-07-29T03:47:37Z,42.805,6.029,13.3014,4.60014,2470.39,2021-7-29T05:48:54Z
2021-07-29T03:50:40Z,42.805,6.029,13.3012,4.60021,2470.366,2021-7-29T05:51:57Z
2021-07-29T03:53:43Z,42.805,6.029,13.3013,4.60017,2470.427,2021-7-29T05:55:00Z
2021-07-29T03:56:46Z,42.805,6.029,13.3009,4.60029,2470.413,2021-7-29T05:58:03Z
2021-07-29T03:59:49Z,42.805,6.029,13.3011,4.60022,2470.413,2021-7-29T06:01:07Z
2021-07-29T04:02:53Z,42.805,6.029,13.3014,4.60009,2470.427,2021-7-29T06:04:10Z
2021-07-29T04:05:56Z,42.805,6.029,13.3007,4.60012,2470.45,2021-7-29T06:07:13Z
2021-07-29T04:08:59Z,42.805,6.029,13.3006,4.60017,2470.413,2021-7-29T06:10:16Z
2021-07-29T04:12:02Z,42.805,6.029,13.3012,4.60014,2470.413,2021-7-29T06:13:19Z
2021-07-29T04:15:05Z,42.805,6.029,13.3002,4.60009,2470.413,2021-7-29T06:16:22Z
2021-07-29T04:18:08Z,42.805,6.029,13.2995,4.60008,2470.38,2021-7-29T06:19:25Z
2021-07-29T04:21:11Z,42.805,6.029,13.3010,4.60019,2470.404,2021-7-29T06:22:28Z
2021-07-29T04:24:14Z,42.805,6.029,13.3001,4.60014,2470.45,2021-7-29T06:25:32Z
2021-07-29T04:27:18Z,42.805,6.029,13.3011,4.60011,2470.413,2021-7-29T06:28:35Z
2021-07-29T04:30:21Z,42.805,6.029,13.3006,4.60013,2470.404,2021-7-29T06:31:38Z
2021-07-29T04:33:24Z,42.805,6.029,13.3014,4.60011,2470.413,2021-7-29T06:34:41Z
2021-07-29T04:36:27Z,42.805,6.029,13.3000,4.60011,2470.413,2021-7-29T06:37:44Z
2021-07-29T04:39:30Z,42.805,6.029,13.3006,4.60010,2470.413,2021-7-29T06:40:47Z
2021-07-29T04:42:33Z,42.805,6.029,13.3006,4.60009,2470.413,2021-7-29T06:43:50Z
2021-07-29T04:45:36Z,42.805,6.029,13.2998,4.60007,2470.366,2021-7-29T06:46:53Z
2021-07-29T04:48:39Z,42.805,6.029,13.2998,4.60003,2470.413,2021-7-29T06:49:57Z
2021-07-29T04:51:43Z,42.805,6.029,13.2995,4.60005,2470.404,2021-7-29T06:53:00Z
2021-07-29T04:54:46Z,42.805,6.029,13.3000,4.60008,2470.39,2021-7-29T06:56:03Z
2021-07-29T04:57:49Z,42.805,6.029,13.3002,4.60006,2470.343,2021-7-29T06:59:06Z
2021-07-29T05:00:52Z,42.805,6.029,13.2994,4.60011,2470.404,2021-7-29T07:02:09Z
2021-07-29T05:03:55Z,42.805,6.029,13.3008,4.60010,2470.39,2021-7-29T07:05:12Z
2021-07-29T05:06:58Z,42.805,6.029,13.2999,4.60005,2470.38,2021-7-29T07:08:15Z
2021-07-29T05:10:01Z,42.805,6.029,13.2993,4.60003,2470.413,2021-7-29T07:11:18Z
2021-07-29T05:13:04Z,42.805,6.029,13.3004,4.60005,2470.39,2021-7-29T07:14:22Z
2021-07-29T05:16:08Z,42.805,6.029,13.3002,4.60006,2470.39,2021-7-29T07:17:25Z
2021-07-29T05:19:11Z,42.805,6.029,13.2997,4.60006,2470.39,2021-7-29T07:20:28Z
2021-07-29T05:22:14Z,42.805,6.029,13.2998,4.60004,2470.427,2021-7-29T07:23:31Z
2021-07-29T05:25:17Z,42.805,6.029,13.3004,4.60005,2470.353,2021-7-29T07:26:34Z
2021-07-29T05:28:20Z,42.805,6.029,13.3000,4.60004,2470.39,2021-7-29T07:29:37Z
2021-07-29T05:31:23Z,42.805,6.029,13.3006,4.60011,2470.38,2021-7-29T07:32:40Z
2021-07-29T05:34:26Z,42.805,6.029,13.3000,4.60012,2470.39,2021-7-29T07:35:43Z
2021-07-29T05:37:29Z,42.805,6.029,13.3004,4.60009,2470.38,2021-7-29T07:38:46Z
2021-07-29T05:40:33Z,42.805,6.029,13.2997,4.60008,2470.366,2021-7-29T07:41:50Z
2021-07-29T05:43:36Z,42.805,6.029,13.2998,4.60010,2470.366,2021-7-29T07:44:53Z
2021-07-29T05:46:39Z,42.805,6.029,13.3001,4.60004,2470.39,2021-7-29T07:47:56Z
2021-07-29T05:49:42Z,42.805,6.029,13.3000,4.60009,2470.404,2021-7-29T07:50:59Z
2021-07-29T05:52:45Z,42.805,6.029,13.3007,4.60014,2470.366,2021-7-29T07:54:02Z
2021-07-29T05:55:48Z,42.805,6.029,13.3004,4.60008,2470.366,2021-7-29T07:57:05Z
2021-07-29T05:58:51Z,42.805,6.029,13.3004,4.60009,2470.366,2021-7-29T08:00:08Z
2021-07-29T06:01:54Z,42.805,6.029,13.3002,4.60014,2470.39,2021-7-29T08:03:11Z
2021-07-29T06:04:58Z,42.805,6.029,13.3003,4.60007,2470.39,2021-7-29T08:06:15Z
2021-07-29T06:08:01Z,42.805,6.029,13.2999,4.60003,2470.39,2021-7-29T08:09:18Z
2021-07-29T06:11:04Z,42.805,6.029,13.3002,4.60018,2470.413,2021-7-29T08:12:21Z
2021-07-29T06:14:07Z,42.805,6.029,13.3004,4.60011,2470.39,2021-7-29T08:15:24Z
2021-07-29T06:17:10Z,42.805,6.029,13.3000,4.60011,2470.38,2021-7-29T08:18:27Z
2021-07-29T06:20:13Z,42.805,6.029,13.3004,4.60011,2470.38,2021-7-29T08:21:30Z
2021-07-29T06:23:16Z,42.805,6.029,13.3006,4.60010,2470.404,2021-7-29T08:24:33Z
2021-07-29T06:26:19Z,42.805,6.029,13.3000,4.60010,2470.366,2021-7-29T08:27:36Z
2021-07-29T06:29:22Z,42.805,6.029,13.3006,4.60011,2470.366,2021-7-29T08:30:40Z
2021-07-29T06:32:26Z,42.805,6.029,13.3001,4.60009,2470.366,2021-7-29T08:33:43Z
2021-07-29T06:35:29Z,42.805,6.029,13.3000,4.60005,2470.38,2021-7-29T08:36:46Z
2021-07-29T06:38:32Z,42.805,6.029,13.3000,4.60007,2470.39,2021-7-29T08:39:49Z
2021-07-29T06:41:35Z,42.805,6.029,13.3001,4.60010,2470.404,2021-7-29T08:42:52Z
2021-07-29T06:44:38Z,42.805,6.029,13.2999,4.60008,2470.366,2021-7-29T08:45:55Z
2021-07-29T06:47:41Z,42.805,6.029,13.3000,4.60009,2470.404,2021-7-29T08:48:58Z
2021-07-29T06:50:44Z,42.805,6.029,13.3014,4.60009,2470.38,2021-7-29T08:52:01Z
2021-07-29T06:53:47Z,42.805,6.029,13.3001,4.60006,2470.39,2021-7-29T08:55:05Z
2021-07-29T06:56:51Z,42.805,6.029,13.3010,4.60009,2470.39,2021-7-29T08:58:08Z
2021-07-29T06:59:54Z,42.805,6.029,13.3004,4.60014,2470.39,2021-7-29T09:01:11Z
2021-07-29T07:02:57Z,42.805,6.029,13.2997,4.60011,2470.404,2021-7-29T09:04:14Z
2021-07-29T07:06:00Z,42.805,6.029,13.3004,4.60015,2470.404,2021-7-29T09:07:17Z
2021-07-29T07:09:03Z,42.805,6.029,13.3007,4.60016,2470.32,2021-7-29T09:10:20Z
2021-07-29T07:12:06Z,42.805,6.029,13.3002,4.60014,2470.39,2021-7-29T09:13:23Z
2021-07-29T07:15:09Z,42.805,6.029,13.3008,4.60010,2470.404,2021-7-29T09:16:26Z
2021-07-29T07:18:12Z,42.805,6.029,13.2998,4.60014,2470.45,2021-7-29T09:19:30Z
2021-07-29T07:21:16Z,42.805,6.029,13.3003,4.60010,2470.427,2021-7-29T09:22:33Z
2021-07-29T07:24:19Z,42.805,6.029,13.3001,4.60006,2470.39,2021-7-29T09:25:36Z
2021-07-29T07:27:22Z,42.805,6.029,13.3003,4.60009,2470.45,2021-7-29T09:28:39Z
2021-07-29T07:30:25Z,42.805,6.029,13.3000,4.60008,2470.46,2021-7-29T09:31:42Z
2021-07-29T07:33:28Z,42.805,6.029,13.3004,4.60017,2470.404,2021-7-29T09:34:45Z
2021-07-29T07:36:31Z,42.805,6.029,13.3008,4.60021,2470.413,2021-7-29T09:37:48Z
2021-07-29T07:39:34Z,42.805,6.029,13.2998,4.60011,2470.413,2021-7-29T09:40:51Z
2021-07-29T07:42:37Z,42.805,6.029,13.3006,4.60006,2470.404,2021-7-29T09:43:55Z
2021-07-29T07:45:41Z,42.805,6.029,13.3006,4.60011,2470.437,2021-7-29T09:46:58Z
2021-07-29T07:48:44Z,42.805,6.029,13.3006,4.60008,2470.427,2021-7-29T09:50:01Z
2021-07-29T07:51:47Z,42.805,6.029,13.3006,4.60011,2470.39,2021-7-29T09:53:04Z
2021-07-29T07:54:50Z,42.805,6.029,13.3006,4.60016,2470.413,2021-7-29T09:56:07Z
2021-07-29T07:57:53Z,42.805,6.029,13.2998,4.60017,2470.427,2021-7-29T09:59:10Z
2021-07-29T08:00:56Z,42.805,6.029,13.3006,4.60016,2470.437,2021-7-29T10:02:13Z
2021-07-29T08:03:59Z,42.805,6.029,13.2999,4.60005,2470.413,2021-7-29T10:05:16Z
2021-07-29T08:07:02Z,42.805,6.029,13.3000,4.60018,2470.437,2021-7-29T10:08:20Z
2021-07-29T08:10:06Z,42.805,6.029,13.3005,4.60011,2470.413,2021-7-29T10:11:23Z
2021-07-29T08:13:09Z,42.805,6.029,13.3002,4.60006,2470.413,2021-7-29T10:14:26Z
2021-07-29T08:16:12Z,42.805,6.029,13.3000,4.60015,2470.413,2021-7-29T10:17:29Z
2021-07-29T08:19:15Z,42.805,6.029,13.2991,4.60012,2470.413,2021-7-29T10:20:32Z
2021-07-29T08:22:18Z,42.805,6.029,13.3000,4.60014,2470.45,2021-7-29T10:23:35Z
2021-07-29T08:25:21Z,42.805,6.029,13.3004,4.60013,2470.413,2021-7-29T10:26:38Z
2021-07-29T08:28:24Z,42.805,6.029,13.3012,4.60009,2470.474,2021-7-29T10:29:41Z
2021-07-29T08:31:27Z,42.805,6.029,13.3010,4.60012,2470.474,2021-7-29T10:32:45Z
2021-07-29T08:34:31Z,42.805,6.029,13.3000,4.60008,2470.45,2021-7-29T10:35:48Z
2021-07-29T08:37:34Z,42.805,6.029,13.3007,4.60011,2470.437,2021-7-29T10:38:51Z
2021-07-29T08:40:37Z,42.805,6.029,13.3010,4.60014,2470.437,2021-7-29T10:41:54Z
2021-07-29T08:43:40Z,42.805,6.029,13.3011,4.60014,2470.437,2021-7-29T10:44:57Z
2021-07-29T08:46:43Z,42.805,6.029,13.3000,4.60011,2470.45,2021-7-29T10:48:00Z
2021-07-29T08:49:46Z,42.805,6.029,13.3003,4.60009,2470.437,2021-7-29T10:51:03Z
2021-07-29T08:52:49Z,42.805,6.029,13.2996,4.60009,2470.45,2021-7-29T10:54:06Z
2021-07-29T08:55:53Z,42.805,6.029,13.3005,4.60011,2470.46,2021-7-29T10:57:10Z
2021-07-29T08:58:56Z,42.805,6.029,13.3004,4.60016,2470.437,2021-7-29T11:00:13Z
2021-07-29T09:01:59Z,42.805,6.029,13.3005,4.60011,2470.437,2021-7-29T11:03:16Z
2021-07-29T09:05:02Z,42.805,6.029,13.3007,4.60014,2470.483,2021-7-29T11:06:19Z
2021-07-29T09:08:05Z,42.805,6.029,13.3011,4.60019,2470.483,2021-7-29T11:09:22Z
2021-07-29T09:11:08Z,42.805,6.029,13.2996,4.60010,2470.45,2021-7-29T11:12:25Z
2021-07-29T09:14:11Z,42.805,6.029,13.3000,4.60019,2470.437,2021-7-29T11:15:28Z
2021-07-29T09:17:14Z,42.805,6.029,13.2994,4.60007,2470.46,2021-7-29T11:18:31Z
2021-07-29T09:20:18Z,42.805,6.029,13.2999,4.60003,2470.46,2021-7-29T11:21:35Z
2021-07-29T09:23:21Z,42.805,6.029,13.3011,4.60005,2470.437,2021-7-29T11:24:38Z
2021-07-29T09:26:24Z,42.805,6.029,13.3009,4.60008,2470.46,2021-7-29T11:27:41Z
2021-07-29T09:29:27Z,42.805,6.029,13.3011,4.60011,2470.483,2021-7-29T11:30:44Z
2021-07-29T09:32:30Z,42.805,6.029,13.3010,4.60014,2470.483,2021-7-29T11:33:47Z
2021-07-29T09:35:33Z,42.805,6.029,13.2996,4.60011,2470.46,2021-7-29T11:36:50Z
2021-07-29T09:38:36Z,42.805,6.029,13.3000,4.60011,2470.46,2021-7-29T11:39:53Z
2021-07-29T09:41:39Z,42.805,6.029,13.3000,4.60007,2470.474,2021-7-29T11:42:57Z
2021-07-29T09:44:43Z,42.805,6.029,13.3000,4.60006,2470.497,2021-7-29T11:46:00Z
2021-07-29T09:47:46Z,42.805,6.029,13.2999,4.60023,2470.474,2021-7-29T11:49:03Z
2021-07-29T09:50:49Z,42.805,6.029,13.3000,4.60022,2470.474,2021-7-29T11:52:06Z
2021-07-29T09:53:52Z,42.805,6.029,13.2993,4.60015,2470.46,2021-7-29T11:55:09Z
2021-07-29T09:56:55Z,42.805,6.029,13.3008,4.60006,2470.483,2021-7-29T11:58:12Z
2021-07-29T09:59:58Z,42.805,6.029,13.3008,4.60007,2470.483,2021-7-29T12:01:15Z
2021-07-29T10:03:01Z,42.805,6.029,13.3004,4.60007,2470.497,2021-7-29T12:04:18Z
2021-07-29T10:06:04Z,42.805,6.029,13.3014,4.60014,2470.45,2021-7-29T12:07:22Z
2021-07-29T10:09:08Z,42.805,6.029,13.3018,4.60013,2470.52,2021-7-29T12:10:25Z
2021-07-29T10:12:11Z,42.805,6.029,13.3000,4.60007,2470.497,2021-7-29T12:13:28Z
2021-07-29T10:15:14Z,42.805,6.029,13.2998,4.60008,2470.483,2021-7-29T12:16:31Z
2021-07-29T10:18:17Z,42.805,6.029,13.3009,4.60011,2470.497,2021-7-29T12:19:34Z
2021-07-29T10:21:20Z,42.805,6.029,13.3005,4.60024,2470.497,2021-7-29T12:22:37Z
2021-07-29T10:24:23Z,42.805,6.029,13.3014,4.60039,2470.483,2021-7-29T12:25:40Z
2021-07-29T10:27:26Z,42.805,6.029,13.3009,4.60026,2470.483,2021-7-29T12:28:43Z
2021-07-29T10:30:29Z,42.805,6.029,13.3021,4.60016,2470.474,2021-7-29T12:31:47Z
2021-07-29T10:33:33Z,42.805,6.029,13.3005,4.60010,2470.497,2021-7-29T12:34:50Z
2021-07-29T10:36:36Z,42.805,6.029,13.3004,4.60026,2470.497,2021-7-29T12:37:53Z
2021-07-29T10:39:39Z,42.805,6.029,13.3004,4.60020,2470.497,2021-7-29T12:40:56Z
2021-07-29T10:42:42Z,42.805,6.029,13.3005,4.60014,2470.483,2021-7-29T12:43:59Z
2021-07-29T10:45:45Z,42.805,6.029,13.3015,4.60016,2470.497,2021-7-29T12:47:02Z
2021-07-29T10:48:48Z,42.805,6.029,13.3004,4.60028,2470.497,2021-7-29T12:50:05Z
2021-07-29T10:51:51Z,42.805,6.029,13.2998,4.60011,2470.497,2021-7-29T12:53:08Z
2021-07-29T10:54:54Z,42.805,6.029,13.2998,4.60004,2470.483,2021-7-29T12:56:12Z
2021-07-29T10:57:58Z,42.805,6.029,13.2998,4.60005,2470.46,2021-7-29T12:59:15Z
2021-07-29T11:01:01Z,42.805,6.029,13.3005,4.60016,2470.46,2021-7-29T13:02:18Z
2021-07-29T11:04:04Z,42.805,6.029,13.3000,4.60011,2470.46,2021-7-29T13:05:21Z
2021-07-29T11:07:07Z,42.805,6.029,13.3000,4.60006,2470.474,2021-7-29T13:08:24Z
2021-07-29T11:10:10Z,42.805,6.029,13.3006,4.60011,2470.46,2021-7-29T13:11:27Z
2021-07-29T11:13:13Z,42.805,6.029,13.3006,4.60016,2470.46,2021-7-29T13:14:30Z
2021-07-29T11:16:16Z,42.805,6.029,13.3008,4.60010,2470.474,2021-7-29T13:17:33Z
2021-07-29T11:19:20Z,42.805,6.029,13.2997,4.60014,2470.483,2021-7-29T13:20:37Z
2021-07-29T11:22:23Z,42.805,6.029,13.3001,4.60023,2470.46,2021-7-29T13:23:40Z
2021-07-29T11:25:26Z,42.805,6.029,13.3006,4.60009,2470.46,2021-7-29T13:26:43Z
2021-07-29T11:28:29Z,42.805,6.029,13.3000,4.60011,2470.497,2021-7-29T13:29:46Z
2021-07-29T11:31:32Z,42.805,6.029,13.3001,4.60009,2470.483,2021-7-29T13:32:49Z
2021-07-29T11:34:35Z,42.805,6.029,13.3009,4.60001,2470.45,2021-7-29T13:35:52Z
2021-07-29T11:37:38Z,42.805,6.029,13.2990,4.60008,2470.483,2021-7-29T13:38:55Z
2021-07-29T11:40:41Z,42.805,6.029,13.3005,4.60005,2470.45,2021-7-29T13:41:59Z
2021-07-29T11:43:45Z,42.805,6.029,13.2993,4.60016,2470.474,2021-7-29T13:45:02Z
2021-07-29T11:46:48Z,42.805,6.029,13.3009,4.60009,2470.46,2021-7-29T13:48:05Z
2021-07-29T11:49:51Z,42.805,6.029,13.3015,4.60014,2470.474,2021-7-29T13:51:08Z
2021-07-29T11:52:54Z,42.805,6.029,13.2999,4.60007,2470.497,2021-7-29T13:54:11Z
2021-07-29T11:55:57Z,42.805,6.029,13.3003,4.60014,2470.45,2021-7-29T13:57:14Z
2021-07-29T11:59:00Z,42.805,6.029,13.3007,4.60016,2470.45,2021-7-29T14:00:17Z
2021-07-29T12:02:03Z,42.805,6.029,13.3000,4.60006,2470.474,2021-7-29T14:03:20Z
2021-07-29T12:05:06Z,42.805,6.029,13.3005,4.60015,2470.45,2021-7-29T14:06:24Z
2021-07-29T12:08:10Z,42.805,6.029,13.3000,4.60026,2470.46,2021-7-29T14:09:27Z
2021-07-29T12:11:13Z,42.805,6.029,13.2995,4.60014,2470.45,2021-7-29T14:12:30Z
2021-07-29T12:14:16Z,42.805,6.029,13.3006,4.60016,2470.413,2021-7-29T14:15:33Z
2021-07-29T12:17:19Z,42.805,6.029,13.2995,4.60024,2470.437,2021-7-29T14:18:36Z
2021-07-29T12:20:22Z,42.805,6.029,13.2996,4.60005,2470.437,2021-7-29T14:21:39Z
2021-07-29T12:23:25Z,42.805,6.029,13.2998,4.60002,2470.45,2021-7-29T14:24:42Z
2021-07-29T12:26:28Z,42.805,6.029,13.3003,4.60014,2470.413,2021-7-29T14:27:45Z
2021-07-29T12:29:31Z,42.805,6.029,13.2990,4.60008,2470.437,2021-7-29T14:30:49Z
2021-07-29T12:32:35Z,42.805,6.029,13.3001,4.60003,2470.45,2021-7-29T14:33:52Z
2021-07-29T12:35:38Z,42.805,6.029,13.3012,4.60009,2470.474,2021-7-29T14:36:55Z
2021-07-29T12:38:41Z,42.805,6.029,13.3004,4.60014,2470.39,2021-7-29T14:39:58Z
2021-07-29T12:41:44Z,42.805,6.029,13.2998,4.60020,2470.423,2021-7-29T14:43:01Z
2021-07-29T12:44:47Z,42.805,6.029,13.2990,4.60009,2470.45,2021-7-29T14:46:04Z
2021-07-29T12:47:50Z,42.805,6.029,13.3006,4.60011,2470.413,2021-7-29T14:49:07Z
2021-07-29T12:50:53Z,42.805,6.029,13.3006,4.60012,2470.413,2021-7-29T14:52:11Z
2021-07-29T12:53:57Z,42.805,6.029,13.3006,4.60016,2470.437,2021-7-29T14:55:14Z
2021-07-29T12:57:00Z,42.805,6.029,13.3002,4.60019,2470.437,2021-7-29T14:58:17Z
2021-07-29T13:00:03Z,42.805,6.029,13.3000,4.60011,2470.404,2021-7-29T15:01:20Z
2021-07-29T13:03:06Z,42.805,6.029,13.3007,4.60009,2470.437,2021-7-29T15:04:23Z
2021-07-29T13:06:09Z,42.805,6.029,13.3004,4.60013,2470.437,2021-7-29T15:07:26Z
2021-07-29T13:09:12Z,42.805,6.029,13.3004,4.60026,2470.427,2021-7-29T15:10:29Z
2021-07-29T13:12:15Z,42.805,6.029,13.2996,4.60021,2470.427,2021-7-29T15:13:32Z
2021-07-29T13:15:18Z,42.805,6.029,13.3016,4.60016,2470.437,2021-7-29T15:16:36Z
2021-07-29T13:18:22Z,42.805,6.029,13.3004,4.60017,2470.39,2021-7-29T15:19:39Z
2021-07-29T13:21:25Z,42.805,6.029,13.3006,4.60019,2470.45,2021-7-29T15:22:42Z
2021-07-29T13:24:28Z,42.805,6.029,13.3009,4.60015,2470.437,2021-7-29T15:25:45Z
2021-07-29T13:27:31Z,42.805,6.029,13.3012,4.60018,2470.404,2021-7-29T15:28:48Z
2021-07-29T13:30:34Z,42.805,6.029,13.3013,4.60014,2470.38,2021-7-29T15:31:51Z
2021-07-29T13:33:37Z,42.805,6.029,13.3009,4.60008,2470.404,2021-7-29T15:34:54Z
2021-07-29T13:36:40Z,42.805,6.029,13.3002,4.60014,2470.427,2021-7-29T15:37:57Z
2021-07-29T13:39:43Z,42.805,6.029,13.3004,4.60011,2470.413,2021-7-29T15:41:01Z
2021-07-29T13:42:47Z,42.805,6.029,13.3001,4.60009,2470.39,2021-7-29T15:44:04Z
2021-07-29T13:45:50Z,42.805,6.029,13.3009,4.60017,2470.427,2021-7-29T15:47:07Z
2021-07-29T13:48:53Z,42.805,6.029,13.2997,4.60021,2470.39,2021-7-29T15:50:10Z
2021-07-29T13:51:56Z,42.805,6.029,13.3013,4.60016,2470.366,2021-7-29T15:53:13Z
2021-07-29T13:54:59Z,42.805,6.029,13.2996,4.60025,2470.39,2021-7-29T15:56:16Z
2021-07-29T13:58:02Z,42.805,6.029,13.2993,4.60017,2470.427,2021-7-29T15:59:19Z
2021-07-29T14:01:05Z,42.805,6.029,13.2999,4.60025,2470.427,2021-7-29T16:02:22Z
2021-07-29T14:04:08Z,42.805,6.029,13.2993,4.60007,2470.437,2021-7-29T16:05:26Z
2021-07-29T14:07:12Z,42.805,6.029,13.3004,4.60011,2470.404,2021-7-29T16:08:29Z
2021-07-29T14:10:15Z,42.805,6.029,13.3010,4.60014,2470.366,2021-7-29T16:11:32Z
2021-07-29T14:13:18Z,42.805,6.029,13.3021,4.60010,2470.413,2021-7-29T16:14:35Z
2021-07-29T14:16:21Z,42.805,6.029,13.3003,4.60019,2470.39,2021-7-29T16:17:38Z
2021-07-29T14:19:24Z,42.805,6.029,13.3006,4.60016,2470.413,2021-7-29T16:20:41Z
2021-07-29T14:22:27Z,42.805,6.029,13.3005,4.60070,2470.38,2021-7-29T16:23:44Z
2021-07-29T14:25:30Z,42.805,6.029,13.2996,4.60011,2470.38,2021-7-29T16:26:47Z
2021-07-29T14:28:34Z,42.805,6.029,13.3001,4.60011,2470.39,2021-7-29T16:29:51Z
2021-07-29T14:31:37Z,42.805,6.029,13.3006,4.60004,2470.366,2021-7-29T16:32:54Z
2021-07-29T14:34:40Z,42.805,6.029,13.3000,4.60027,2470.38,2021-7-29T16:35:57Z
2021-07-29T14:37:43Z,42.805,6.029,13.3004,4.60013,2470.39,2021-7-29T16:39:00Z
2021-07-29T14:40:46Z,42.805,6.029,13.3010,4.60016,2470.404,2021-7-29T16:42:03Z
2021-07-29T14:43:49Z,42.805,6.029,13.3005,4.60022,2470.404,2021-7-29T16:45:06Z
2021-07-29T14:46:52Z,42.805,6.029,13.3013,4.60016,2470.38,2021-7-29T16:48:09Z
2021-07-29T14:49:55Z,42.805,6.029,13.3002,4.60060,2470.404,2021-7-29T16:51:12Z
2021-07-29T14:52:59Z,42.805,6.029,13.3018,4.60013,2470.427,2021-7-29T16:54:16Z
2021-07-29T14:56:02Z,42.805,6.029,13.3019,4.60020,2470.39,2021-7-29T16:57:19Z
2021-07-29T14:59:05Z,42.805,6.029,13.3018,4.60021,2470.39,2021-7-29T17:00:22Z
2021-07-29T15:02:08Z,42.805,6.029,13.3017,4.60026,2470.357,2021-7-29T17:03:25Z
2021-07-29T15:05:11Z,42.805,6.029,13.3006,4.60006,2470.38,2021-7-29T17:06:28Z
2021-07-29T15:08:14Z,42.805,6.029,13.3003,4.60027,2470.366,2021-7-29T17:09:31Z
2021-07-29T15:11:17Z,42.805,6.029,13.3011,4.60015,2470.334,2021-7-29T17:12:34Z
2021-07-29T15:14:20Z,42.805,6.029,13.3022,4.60011,2470.366,2021-7-29T17:15:37Z